User: anonymous   Login
Location: Drayton Valley
(53.2170°N, 114.9830°W)
Time: 14:34:20
(UTC-07:00)
Language:

MOZ.5/SAFIR/RUBIN 5/SL-8 - Orbit

View from above orbital plane
View from above orbital plane
View from above satellite
View from above satellite

Ground track
Ground track

The orbit data is extracted from the following two-line orbital elements,

1 28898U 05043G   14354.09344826  .00000448  00000-0  10277-3 0    76
2 28898 097.8348 173.4176 0020616 167.7439 302.8867 14.59694712487042
Epoch (UTC): 20 December 2014 02:14:33
Eccentricity: 0.0020616
inclination: 97.8348°
perigee height: 679 km
apogee height: 709 km
right ascension of ascending node: 173.4176°
argument of perigee: 167.7439°
revolutions per day: 14.59694712
mean anomaly at epoch: 302.8867°
orbit number at epoch: 48704

The dashed part of the orbit path shows where the satellite is in the earth's shadow,  

DLR